Wind_Speed
13 13 13 13 13 12 10 11 12 13 14 14 14 13 12 9 9 10 10 9 8 8 7 6 5 6 7 7 8 8 7 8 10 9 7 10 7 9 11 10 10 9 12 17 19
12 13 14 15 14 14 13 12 11 12 14 15 15 15 13 10 9 10 10 10 10 9 8 6 6 6 6 8 8 8 8 7 12 8 6 8 8 9 9 7 9 9 10 15 15
14 14 14 14 14 15 15 15 14 13 12 13 14 14 13 12 9 11 11 11 10 9 7 7 6 7 7 9 8 7 8 11 9 11 12 9 10 10 9 10 10 11 12 17 16
16 15 15 16 16 15 15 15 16 16 14 12 12 13 11 12 1 8 11 12 9 8 7 7 8 7 7 9 8 9 11 10 9 11 10 9 9 11 12 11 18 16 16 17 17
16 17 17 17 17 17 16 15 15 16 16 15 13 12 11 12 11 12 11 10 9 7 8 8 7 7 10 8 12 13 11 11 12 12 10 11 13 13 15 15 16 18 18 19 19
17 17 18 18 17 18 17 16 16 16 17 17 14 12 13 11 16 14 15 13 10 9 9 8 8 10 12 12 12 10 12 12 12 12 13 15 14 16 15 16 17 20 21 21 21
19 19 19 19 19 19 20 19 17 17 16 16 17 15 15 11 15 13 14 14 11 11 10 10 11 10 8 9 14 15 13 13 15 15 14 14 18 21 14 19 20 23 21 24 23
20 20 20 20 20 20 21 20 20 19 17 16 17 17 17 13 17 15 15 15 14 12 11 10 11 12 13 14 13 10 13 13 7 11 11 15 17 11 15 20 19 18 16 18 24
21 21 21 21 22 21 22 22 22 21 20 19 18 18 20 15 17 15 17 16 15 15 14 12 12 12 13 12 11 13 14 10 12 11 11 12 13 11 21 22 20 18 19 19 20
22 22 23 24 24 23 23 23 23 23 23 22 21 19 19 18 15 16 17 20 18 17 16 15 13 13 12 13 17 10 13 12 12 11 11 16 22 20 19 25 19 17 18 18 20
25 24 22 25 26 25 24 24 26 26 25 23 18 15 18 16 13 17 19 21 21 20 16 14 13 18 14 16 18 18 16 17 16 14 18 19 19 18 17 18 19 17 16 17 23
32 31 29 25 25 27 25 25 24 27 33 30 28 29 27 24 22 20 20 24 24 22 16 18 20 17 16 18 16 16 18 19 17 16 16 18 23 20 17 20 17 17 19 23 31
31 30 29 30 28 27 26 25 25 27 34 40 34 34 29 30 30 26 26 22 23 21 21 24 11 15 17 18 17 18 19 19 18 17 20 21 28 17 16 14 15 16 19 23 15
32 31 30 25 27 29 27 24 23 23 25 30 34 29 32 37 39 29 30 23 24 25 21 24 23 23 17 17 15 18 15 17 16 13 12 4 9 10 12 12 13 9 13 14 8
36 34 33 29 24 26 25 23 19 16 8 4 15 16 16 34 22 33 36 28 28 24 22 17 16 17 23 22 18 18 18 15 11 14 18 20 12 12 12 12 11 9 15 8 4
40 36 31 28 25 24 22 18 14 6 15 8 10 12 18 21 21 22 29 30 26 25 24 26 18 16 15 15 13 14 16 11 11 11 12 21 18 8 10 11 12 12 10 5 4
39 36 32 24 21 18 19 16 9 16 10 13 13 18 17 18 29 29 28 36 29 28 33 26 30 23 25 17 15 18 9 4 6 6 4 2 9 18 9 15 12 10 8 3 5
40 34 27 21 20 19 20 19 20 22 29 17 9 10 14 17 22 22 24 34 37 28 16 28 17 31 26 30 13 21 18 8 5 4 2 3 9 5 14 15 11 9 6 3 3
38 33 29 24 24 23 23 28 30 26 27 23 20 30 22 19 17 26 30 34 36 39 27 18 21 15 18 18 21 13 24 20 19 16 9 11 11 14 15 14 11 10 6 4 1
36 37 37 27 24 23 29 44 30 30 20 17 19 23 23 27 22 20 23 23 35 38 36 18 14 15 23 19 23 22 12 11 13 4 6 10 13 12 11 16 11 10 8 6 4
35 38 31 27 25 27 31 33 33 39 24 20 22 25 26 29 30 28 22 24 23 34 38 36 20 9 17 25 23 28 22 12 12 14 4 5 3 6 14 11 8 11 10 8 6
38 39 29 30 25 27 32 31 31 35 24 26 35 28 27 26 26 33 36 27 16 32 38 36 22 24 25 12 21 22 24 24 14 11 13 14 7 5 11 10 9 11 11 9 8
46 47 38 36 28 30 26 27 28 30 29 26 29 27 28 26 28 26 29 29 28 24 30 29 30 23 18 15 20 27 29 28 27 19 16 10 3 9 12 12 10 9 12 11 10
42 39 41 40 34 28 27 29 30 27 25 23 30 28 30 32 24 17 18 17 23 27 26 21 33 39 29 22 21 28 32 33 30 28 26 26 12 9 13 14 11 10 10 10 12
45 48 40 26 33 35 31 30 26 26 23 21 20 25 29 37 39 28 38 27 19 18 30 30 26 34 34 38 15 18 29 36 39 39 24 23 22 20 16 13 10 10 12 10 11
48 47 54 52 26 27 27 30 33 28 21 18 21 23 24 31 31 34 19 39 29 17 27 33 31 27 32 31 26 22 21 27 38 35 35 22 19 10 15 17 20 17 14 12 10
48 49 41 32 34 28 27 28 25 22 22 21 22 24 27 29 29 32 42 27 31 30 25 29 29 29 28 28 20 25 34 28 29 33 33 33 25 17 20 24 21 15 15 13 12
Wind_Direction
294 296 296 297 300 301 299 302 307 310 314 311 308 299 291 288 286 285 283 278 276 275 280 278 285 279 275 264 253 243 239 257 253 247 251 235 254 267 257 253 274 256 253 246 266
283 285 291 296 298 300 301 298 297 303 312 313 313 305 290 278 277 275 271 272 273 279 280 284 282 279 280 279 266 237 252 267 236 239 240 237 241 242 273 274 271 265 266 272 277
277 280 282 286 292 299 302 300 299 299 305 310 314 306 292 280 275 272 266 266 271 273 280 286 276 273 268 263 256 263 241 265 265 252 245 247 258 251 254 257 259 239 254 287 286
286 283 282 284 287 289 292 297 298 299 301 305 309 306 294 277 267 268 259 254 256 269 277 272 268 263 267 263 258 263 270 255 254 258 252 252 258 250 256 252 247 271 273 279 280
290 288 284 283 283 285 289 290 293 295 300 301 303 304 291 277 266 258 262 257 255 261 267 267 269 266 257 274 261 263 262 259 258 265 265 260 261 261 258 259 274 274 275 281 282
284 281 285 283 282 284 284 285 288 289 291 296 298 299 288 273 266 262 255 251 254 270 273 262 251 241 258 253 250 264 252 257 261 268 270 267 268 265 274 252 276 276 273 280 282
292 291 290 289 288 285 284 283 282 283 283 286 292 289 282 262 267 262 254 255 257 261 263 266 259 252 260 270 258 255 269 275 268 264 257 270 270 259 272 252 278 278 272 278 281
292 293 294 291 286 286 284 283 283 282 280 279 280 282 279 271 263 257 253 252 254 256 258 261 263 253 249 250 266 267 269 276 261 253 258 273 278 284 249 272 279 258 262 268 282
295 294 292 290 290 287 285 285 283 280 279 277 275 276 279 275 262 255 246 249 247 254 259 259 259 252 257 253 264 256 264 259 272 268 247 253 270 284 279 279 276 263 265 269 278
299 298 298 295 293 291 289 287 285 281 276 274 269 271 263 268 260 252 242 243 248 256 257 257 257 253 254 229 242 280 253 270 271 276 264 266 273 277 273 279 275 267 267 278 284
299 298 299 299 297 295 291 291 290 292 271 268 257 252 259 256 253 244 239 238 240 249 241 258 240 240 248 248 250 267 266 272 273 278 277 281 279 278 263 268 271 270 274 283 291
295 296 298 298 298 295 294 290 286 283 280 273 266 257 249 253 248 241 235 227 229 230 232 236 249 250 249 246 241 252 265 268 278 272 277 287 280 274 264 261 261 258 278 289 302
287 288 289 294 298 296 292 290 288 286 287 283 276 265 256 249 246 247 242 246 225 225 224 231 252 251 240 246 248 252 255 265 274 281 284 286 295 263 246 249 269 273 284 305 317
291 291 291 288 287 293 290 290 290 292 299 281 279 268 244 238 241 226 244 239 219 229 230 248 249 255 249 237 245 257 260 260 267 284 285 279 286 281 230 253 265 273 297 309 321
295 295 294 291 284 279 283 283 281 295 287 269 231 258 242 221 241 239 230 218 221 225 214 231 241 232 241 248 244 256 251 256 263 271 286 273 252 262 198 223 244 259 308 305 299
297 298 297 293 286 275 272 269 261 250 245 260 241 245 236 232 216 222 212 215 228 227 235 229 250 233 237 243 218 229 249 265 264 269 266 262 218 270 218 221 219 275 305 302 251
295 295 295 292 275 273 257 241 222 228 245 253 248 244 247 229 209 228 215 203 208 209 227 236 235 240 236 240 236 219 218 252 239 202 260 144 222 240 251 241 253 277 295 291 232
296 296 291 278 265 255 236 216 228 249 246 246 280 243 238 219 220 225 216 217 217 217 230 223 230 224 233 225 227 219 206 200 234 245 260 256 237 235 212 241 256 263 274 271 241
292 285 279 268 264 245 226 214 235 254 259 258 252 254 253 238 226 222 226 227 223 213 217 225 231 218 225 210 206 221 217 228 265 269 277 232 250 259 237 232 246 252 252 236 206
284 281 277 264 250 241 229 229 240 241 248 254 246 240 239 235 228 219 226 236 226 225 215 228 238 230 227 196 203 209 219 192 211 234 246 221 242 237 219 219 231 237 239 240 210
277 278 279 266 249 246 234 240 247 240 234 259 250 247 246 242 236 230 233 238 234 221 219 221 236 214 214 212 203 199 203 204 212 227 283 290 211 191 225 207 219 225 231 245 225
270 269 271 268 243 243 244 242 251 251 245 253 252 251 253 254 253 245 242 238 254 222 219 228 226 221 220 224 208 219 219 214 213 222 236 278 281 245 193 202 207 221 226 242 252
265 264 252 256 236 235 246 248 250 256 257 255 254 256 251 255 268 252 246 240 247 233 224 223 221 236 205 234 223 218 217 222 225 242 249 238 238 193 209 205 203 215 225 238 247
258 245 244 242 242 239 242 245 250 251 257 260 248 246 251 258 256 255 237 233 248 239 226 214 217 221 221 226 220 215 215 216 217 223 234 236 243 244 223 207 205 214 218 235 233
249 257 251 230 230 230 233 239 246 248 250 249 256 249 248 255 259 259 242 259 274 252 218 214 224 232 240 240 242 227 220 214 212 220 224 239 242 246 247 219 222 230 220 224 228
247 253 252 236 237 220 220 232 237 240 242 245 254 263 256 258 248 249 254 254 253 230 209 213 235 241 242 241 239 234 222 219 221 222 228 237 243 220 249 228 227 236 222 215 216
242 248 260 234 214 209 212 225 231 239 248 250 256 259 260 264 265 246 242 267 246 241 218 210 226 234 247 231 231 244 225 219 224 220 223 229 241 247 221 231 241 235 215 213 207
Height
3155 3154 3153 3152 3151 3149 3147 3147 3147 3146 3144 3142 3140 3139 3137 3135 3135 3135 3135 3135 3135 3134 3134 3134 3133 3135 3136 3135 3136 3136 3139 3138 3138 3137 3138 3135 3134 3134 3133 3134 3134 3134 3135 3134 3133
3150 3149 3150 3149 3149 3148 3147 3145 3144 3143 3142 3140 3139 3137 3136 3133 3132 3132 3133 3133 3133 3133 3133 3132 3133 3134 3134 3134 3135 3135 3137 3137 3134 3135 3134 3133 3132 3135 3133 3133 3134 3132 3131 3129 3129
3146 3146 3145 3145 3145 3145 3145 3145 3143 3140 3139 3138 3137 3135 3134 3133 3131 3130 3131 3131 3132 3132 3132 3132 3132 3133 3133 3133 3134 3134 3134 3133 3132 3130 3130 3130 3130 3130 3130 3131 3131 3130 3128 3126 3126
3146 3144 3143 3143 3142 3141 3141 3141 3141 3139 3137 3135 3133 3133 3132 3132 3135 3129 3129 3130 3130 3130 3131 3131 3132 3132 3132 3133 3133 3132 3132 3130 3129 3128 3128 3128 3129 3128 3127 3128 3125 3124 3124 3123 3123
3144 3143 3142 3140 3139 3138 3137 3136 3136 3136 3135 3134 3131 3130 3130 3130 3130 3128 3128 3128 3129 3128 3129 3130 3130 3131 3131 3133 3132 3129 3131 3128 3127 3126 3125 3125 3124 3125 3124 3123 3121 3120 3120 3119 3119
3139 3138 3138 3137 3136 3135 3134 3133 3132 3131 3131 3131 3129 3128 3127 3128 3126 3126 3126 3127 3127 3127 3127 3127 3128 3130 3129 3129 3129 3130 3127 3126 3125 3124 3123 3122 3122 3121 3119 3119 3117 3116 3115 3115 3113
3137 3136 3134 3134 3133 3132 3131 3130 3129 3128 3128 3128 3127 3125 3124 3126 3123 3122 3124 3124 3124 3125 3125 3126 3126 3127 3127 3127 3126 3125 3125 3124 3123 3122 3121 3119 3118 3116 3115 3115 3113 3111 3111 3110 3108
3133 3132 3131 3130 3128 3127 3126 3125 3125 3125 3123 3123 3123 3122 3120 3121 3120 3120 3121 3122 3122 3123 3123 3123 3123 3123 3124 3125 3124 3124 3124 3122 3120 3119 3119 3118 3114 3116 3113 3111 3109 3109 3109 3107 3103
3129 3128 3127 3125 3124 3123 3122 3121 3121 3119 3119 3119 3119 3118 3117 3118 3116 3117 3118 3119 3119 3120 3121 3121 3121 3121 3121 3122 3125 3123 3121 3120 3120 3116 3117 3115 3112 3113 3108 3106 3105 3106 3106 3104 3101
3126 3125 3123 3121 3120 3119 3118 3116 3116 3115 3115 3114 3114 3116 3114 3114 3113 3113 3115 3116 3117 3118 3118 3118 3118 3118 3119 3121 3119 3119 3118 3118 3118 3117 3112 3112 3108 3108 3107 3101 3101 3101 3101 3098 3096
3120 3120 3119 3118 3116 3114 3114 3113 3114 3110 3109 3110 3110 3110 3109 3109 3110 3110 3111 3112 3114 3115 3116 3115 3117 3115 3117 3117 3117 3117 3117 3116 3116 3115 3110 3107 3104 3103 3103 3100 3098 3096 3095 3093 3088
3115 3113 3113 3112 3111 3110 3108 3108 3107 3106 3100 3102 3102 3102 3104 3105 3105 3105 3108 3108 3109 3109 3115 3117 3111 3112 3114 3114 3113 3113 3113 3113 3112 3111 3107 3103 3099 3098 3097 3096 3093 3091 3089 3085 3081
3107 3108 3108 3107 3106 3104 3104 3103 3102 3099 3093 3089 3092 3093 3098 3099 3099 3099 3102 3104 3105 3107 3109 3110 3110 3108 3109 3109 3109 3108 3109 3109 3110 3108 3105 3100 3091 3089 3090 3088 3087 3086 3084 3081 3076
3101 3100 3100 3102 3103 3099 3098 3099 3098 3096 3090 3082 3078 3078 3083 3089 3088 3095 3094 3101 3102 3102 3106 3105 3104 3104 3104 3104 3107 3105 3106 3106 3106 3106 3103 3101 3093 3088 3086 3084 3083 3083 3080 3076 3073
3092 3092 3093 3093 3094 3093 3095 3094 3095 3096 3093 3078 3072 3074 3075 3078 3085 3084 3088 3093 3094 3097 3102 3099 3096 3097 3099 3099 3102 3103 3100 3102 3103 3102 3100 3097 3097 3082 3082 3083 3082 3080 3077 3074 3072
3082 3082 3083 3085 3086 3088 3088 3089 3093 3099 3080 3073 3070 3070 3073 3073 3078 3078 3082 3087 3092 3095 3094 3094 3092 3093 3095 3097 3096 3098 3099 3099 3100 3100 3094 3086 3091 3078 3078 3080 3079 3076 3074 3072 3071
3073 3074 3075 3076 3077 3081 3084 3086 3093 3080 3073 3069 3068 3068 3069 3070 3073 3072 3076 3077 3080 3086 3086 3089 3088 3087 3088 3091 3093 3093 3098 3097 3094 3095 3085 3084 3086 3078 3076 3074 3074 3073 3072 3070 3070
3064 3065 3066 3067 3069 3072 3076 3082 3076 3063 3066 3066 3065 3066 3066 3068 3069 3070 3070 3072 3074 3077 3082 3082 3082 3081 3077 3080 3089 3088 3092 3094 3097 3084 3083 3082 3077 3073 3072 3070 3070 3070 3070 3069 3068
3054 3057 3058 3060 3060 3065 3066 3067 3056 3062 3064 3063 3061 3060 3062 3064 3065 3066 3064 3064 3067 3070 3075 3075 3075 3073 3073 3076 3084 3086 3086 3090 3090 3089 3087 3075 3070 3068 3067 3067 3067 3067 3068 3068 3067
3047 3046 3047 3050 3053 3053 3054 3044 3049 3054 3055 3055 3054 3055 3053 3059 3059 3060 3060 3053 3058 3062 3068 3070 3070 3068 3069 3072 3075 3078 3082 3084 3087 3086 3075 3061 3064 3062 3061 3063 3064 3064 3065 3066 3066
3038 3038 3038 3040 3043 3043 3038 3038 3042 3044 3048 3049 3048 3049 3049 3050 3050 3052 3047 3049 3050 3054 3058 3063 3068 3067 3064 3062 3063 3070 3073 3074 3077 3077 3067 3058 3055 3057 3058 3060 3061 3062 3063 3064 3065
3031 3027 3031 3029 3032 3030 3028 3033 3037 3035 3040 3041 3040 3042 3042 3044 3041 3043 3043 3046 3046 3049 3047 3051 3059 3058 3057 3058 3061 3063 3065 3069 3068 3070 3068 3066 3059 3056 3057 3058 3060 3060 3062 3062 3063
3018 3017 3020 3020 3018 3020 3024 3025 3026 3028 3030 3033 3033 3034 3038 3036 3038 3034 3036 3042 3041 3043 3042 3044 3049 3052 3054 3055 3054 3053 3057 3061 3063 3064 3063 3061 3055 3054 3054 3056 3058 3059 3060 3061 3061
3012 3001 3006 3004 3008 3013 3016 3016 3019 3023 3024 3023 3023 3027 3029 3028 3030 3024 3029 3031 3032 3035 3039 3041 3040 3041 3035 3042 3042 3043 3044 3050 3056 3056 3057 3054 3053 3052 3052 3054 3055 3057 3058 3059 3060
2998 2989 2992 2991 2993 3001 3006 3010 3012 3014 3016 3018 3018 3020 3023 3022 3021 3020 3023 3025 3026 3026 3028 3032 3032 3037 3036 3036 3038 3036 3036 3038 3042 3043 3049 3048 3049 3050 3050 3051 3053 3055 3056 3057 3058
2983 2984 2984 2986 2987 2991 2994 2999 3003 3007 3010 3011 3012 3014 3015 3014 3014 3017 3018 3017 3015 3019 3020 3022 3024 3030 3028 3030 3032 3033 3031 3031 3032 3038 3042 3044 3045 3047 3046 3048 3048 3051 3053 3055 3056
2971 2973 2978 2971 2977 2981 2983 2989 2994 3000 3003 3004 3005 3007 3008 3009 3008 3007 3006 3005 3006 3009 3012 3014 3019 3024 3020 3024 3028 3026 3017 3023 3025 3029 3034 3037 3037 3043 3042 3041 3044 3047 3050 3053 3055